Location: Buckeye Ditch
(40.9104°N, 122.9517°W)
Time: 18:12:07
(UTC+00:00)

Vanguard 1 - Pass Details

Date: 19 May 2025
Orbit: 649 x 3822 km, 34.3° (Epoch: 15 June)

Event Time Altitude Azimuth Distance (km) Brightness Sun altitude
Rises 06:23:52 0° 275° (W) 5,281 14.2 -24.6°
Reaches altitude 10° 06:28:21 10° 267° (W) 3,749 13.3 -25.0°
Enters shadow 06:35:36 34° 214° (SW) 1,690 10.9 -25.5°
